Theta_e
325 320 317 319 321 323 316 310 296 297 296 291 291 294 296 307 308 305 305 308 305 311 313 313 313 313 310 308 311 313 315 309 311 302 303 318 328 333 342 343 344 344 344 344 345 345 346 347 347 351 350 351 351 350 350 350 350 350 350 349 349 349 349 348 348 348 348 347 347 347 347 347 347 347 347 347 347 347 347 347 348 348 348 348 348 348 348 348 348 349 349 349 348 348 348 348 347
322 318 318 320 319 316 308 306 293 292 290 289 292 297 300 306 306 304 305 306 308 310 311 312 314 315 316 315 315 316 315 316 319 317 323 328 329 331 340 343 344 342 343 344 344 344 345 346 346 349 350 350 350 350 351 350 351 350 349 349 349 349 349 348 348 348 348 347 347 347 347 347 347 347 347 346 347 347 347 347 347 347 347 347 347 347 347 347 347 347 347 347 348 348 347 348 347
323 319 317 321 319 314 309 303 292 286 288 286 288 295 304 303 304 306 309 309 309 310 310 312 314 314 313 313 310 311 309 319 321 322 322 328 327 329 334 343 343 343 344 344 343 343 343 344 344 348 350 350 350 350 350 351 350 350 350 349 349 349 348 348 348 348 348 347 347 347 346 347 347 346 346 346 346 346 346 346 346 347 347 346 346 346 346 347 347 347 347 346 347 347 346 346 346
324 319 315 317 309 312 300 296 290 289 289 287 289 297 301 305 308 309 313 312 311 311 312 309 307 310 312 309 310 316 313 315 319 323 321 322 325 329 331 340 341 343 343 343 343 342 341 342 342 346 349 349 349 350 349 350 349 349 349 349 348 348 348 348 347 347 347 346 346 346 346 346 346 346 346 346 346 345 345 345 345 345 346 346 346 346 346 346 346 346 346 346 345 345 345 345 345
321 318 319 315 307 301 299 294 292 289 288 291 290 299 303 308 309 309 311 312 312 311 311 309 305 309 309 307 309 307 311 318 320 323 322 325 328 329 339 341 342 341 342 343 343 342 342 340 343 346 348 348 348 348 349 348 348 348 348 348 348 348 347 347 347 347 346 346 346 346 346 345 346 345 345 345 345 345 345 344 344 344 345 345 345 345 345 345 345 345 345 345 344 344 344 344 344
319 316 320 315 304 310 301 294 292 291 294 297 295 296 303 309 308 308 310 311 312 311 312 309 306 306 305 307 310 307 313 310 320 322 325 325 329 338 340 340 342 341 341 341 342 342 343 340 344 347 348 349 348 348 348 348 348 347 347 346 346 346 345 345 345 345 345 346 346 346 345 345 345 345 345 345 345 345 345 344 344 344 344 344 344 344 344 344 344 344 344 344 343 343 343 343 343
314 312 313 310 310 309 293 289 290 293 300 304 300 302 305 307 310 310 308 309 313 311 314 310 311 308 304 308 310 313 316 317 318 322 326 328 330 337 339 339 340 340 341 340 340 341 341 340 344 346 348 347 348 348 348 347 347 346 346 345 346 345 345 345 344 344 344 344 344 345 345 345 345 344 344 344 344 344 344 344 344 344 344 344 343 343 343 343 343 343 343 344 343 343 343 342 342
317 309 307 299 298 299 295 293 294 295 299 308 306 304 306 308 311 310 308 310 307 306 311 313 311 306 305 310 303 312 317 320 322 328 329 329 330 333 337 337 336 337 338 338 337 337 338 339 342 345 347 346 347 346 346 346 346 346 345 345 345 344 344 344 344 344 344 344 344 344 344 344 344 344 343 343 343 343 343 343 343 343 343 343 343 343 342 343 343 343 343 343 343 342 342 342 342
313 309 307 299 294 297 294 296 296 305 305 309 308 308 310 310 312 309 306 309 311 312 311 310 310 305 305 308 306 311 314 319 322 325 328 329 329 331 333 336 335 335 336 336 336 336 336 336 338 340 343 345 345 345 344 344 344 344 343 343 343 343 343 344 344 344 344 343 343 343 343 343 343 343 343 343 343 343 343 343 343 343 343 343 343 343 343 342 343 343 343 343 342 341 341 341 342
309 307 300 296 297 293 293 294 298 303 304 307 309 308 308 310 310 309 307 306 307 311 314 315 311 306 309 305 306 308 311 318 321 322 322 326 328 330 332 334 335 334 333 334 334 334 333 334 333 334 336 339 342 342 342 342 342 341 341 341 341 342 342 343 343 343 343 343 343 342 342 342 341 341 341 341 341 342 342 342 342 342 341 341 341 341 341 342 342 343 343 343 342 342 341 341 341
301 305 303 295 291 292 292 293 300 304 305 309 310 313 310 309 309 306 306 307 311 308 313 313 310 308 309 308 309 313 317 319 320 320 323 325 328 328 329 333 334 334 333 332 332 333 332 331 330 328 329 331 333 334 336 338 339 339 339 339 340 340 340 340 340 342 342 342 343 342 341 341 340 340 340 340 340 341 341 341 341 340 340 340 340 340 340 340 341 342 342 342 341 341 341 341 340
300 299 297 290 292 293 295 296 300 303 307 307 307 310 311 308 308 304 305 304 308 309 309 312 307 315 308 308 307 312 319 318 321 322 324 326 327 328 330 330 330 331 332 331 327 325 326 326 324 323 323 323 326 328 328 331 334 335 335 337 336 336 337 337 337 338 338 339 339 339 339 339 338 338 339 339 339 339 339 339 339 339 339 339 338 338 339 340 341 342 342 341 341 340 340 340 340
302 298 293 290 292 295 297 297 298 300 301 304 307 308 309 308 306 305 304 305 306 305 304 310 311 312 305 308 313 316 318 318 321 326 325 330 329 330 322 315 312 311 310 311 311 311 312 313 314 314 316 319 320 324 325 324 325 327 327 329 330 331 332 333 333 334 335 334 334 334 333 334 336 337 337 337 338 338 336 336 336 336 336 337 338 338 339 340 341 341 341 341 341 340 340 340 339
304 301 294 292 294 296 296 295 298 297 299 304 306 309 310 306 306 307 307 303 304 303 306 310 311 308 305 307 307 309 313 318 321 323 323 322 322 316 310 308 306 306 307 307 307 308 309 310 311 311 311 312 314 317 319 320 320 321 322 324 325 326 328 329 330 331 331 330 329 328 327 329 331 333 334 334 335 335 334 333 331 333 335 337 338 338 338 339 340 340 340 340 340 340 339 339 338
305 302 296 293 294 293 298 294 296 297 297 304 311 306 306 307 308 307 307 303 304 308 308 308 310 307 301 303 302 305 311 316 320 321 320 320 316 311 308 306 305 304 304 305 306 306 306 307 308 309 309 311 312 313 314 315 318 319 320 322 323 323 323 324 324 324 325 324 324 324 324 324 326 327 329 331 332 332 330 330 329 332 335 336 337 337 337 337 338 338 339 339 339 339 339 338 336
307 301 295 290 293 293 296 298 302 297 300 305 308 306 305 306 308 305 305 305 305 308 308 304 307 304 306 305 306 309 310 315 320 320 319 317 312 309 306 304 303 303 303 303 304 305 305 306 306 307 308 309 310 312 313 314 317 318 320 320 321 322 322 323 322 321 322 323 322 321 321 322 324 325 328 328 328 328 329 326 326 329 333 335 336 335 336 337 337 337 337 338 338 338 337 335 332
306 300 292 289 291 293 295 299 299 293 303 304 305 305 303 303 306 307 307 305 304 305 305 307 306 308 307 306 310 310 311 313 316 318 316 312 306 304 303 302 301 301 302 302 302 303 304 304 305 305 306 308 310 312 314 315 316 317 318 319 319 320 320 321 320 319 319 320 321 322 324 325 325 326 327 326 326 325 325 325 324 327 331 334 335 334 334 335 337 337 337 337 336 335 333 330 329
303 296 291 292 295 296 299 303 302 305 302 302 302 304 303 301 303 305 305 305 302 302 302 304 306 306 308 309 310 309 309 309 309 307 306 304 303 301 300 300 299 298 299 300 301 301 302 302 303 304 306 307 309 312 313 314 315 315 315 316 317 318 318 318 318 316 315 318 318 320 324 324 326 326 325 322 323 321 324 322 322 325 328 330 331 331 331 333 334 334 335 335 333 331 329 327 325
299 294 293 294 299 301 307 308 308 305 301 304 303 303 302 302 303 306 302 301 301 302 302 304 304 305 307 308 307 303 303 302 302 302 300 299 299 298 297 297 297 297 297 298 299 300 301 301 302 304 305 307 309 311 312 313 313 312 312 314 315 316 316 316 316 314 312 313 315 317 319 322 324 323 322 320 320 321 323 321 320 322 324 327 327 328 328 328 329 329 330 331 329 328 326 323 323
301 296 292 295 302 306 308 310 310 309 309 303 303 303 303 302 304 307 302 299 300 299 299 302 302 303 305 305 301 300 299 299 299 298 297 297 297 296 295 295 295 296 297 297 298 299 300 300 301 303 305 308 309 309 310 311 310 310 310 311 312 313 313 313 314 313 309 309 311 312 314 317 319 320 318 318 318 322 322 321 320 320 320 322 321 323 323 322 324 325 325 327 326 325 322 322 321
302 298 295 298 303 303 306 309 310 308 309 305 303 303 302 303 304 304 300 298 298 301 303 303 301 303 303 299 298 297 296 295 296 296 295 295 295 295 295 295 294 295 296 297 297 298 299 299 300 301 304 307 308 308 307 308 308 308 308 309 310 310 310 310 310 311 309 307 307 307 309 313 314 315 316 317 320 321 320 320 321 321 321 319 318 319 318 319 319 319 319 320 321 321 321 322 321
301 298 298 303 304 299 306 308 308 306 306 303 302 303 303 304 303 301 299 295 297 300 304 304 305 304 299 296 295 294 293 293 293 293 293 293 292 292 293 294 294 295 296 295 296 297 297 298 299 300 302 305 307 306 306 307 307 306 306 306 307 307 308 307 307 307 306 303 304 304 305 307 308 309 309 311 314 318 318 318 318 319 319 317 317 317 317 317 316 317 317 317 318 318 319 320 320
296 298 299 301 302 300 304 306 305 304 303 302 301 303 303 300 300 301 300 299 301 302 305 304 301 298 297 295 293 292 291 291 291 291 291 291 291 291 291 292 292 293 294 294 295 296 297 297 298 299 300 302 306 306 305 305 304 304 305 305 304 305 305 304 303 303 303 302 301 302 301 303 304 304 304 306 307 311 315 316 316 316 316 315 315 316 315 315 315 315 315 316 317 317 317 318 319
299 297 300 302 302 301 303 305 302 300 300 301 301 303 300 298 297 301 301 302 303 305 301 296 296 295 294 292 291 290 290 289 289 290 290 290 290 290 291 291 292 293 293 293 294 295 295 295 297 298 298 300 303 305 304 303 302 301 303 304 303 304 302 301 300 300 300 299 299 299 300 300 300 300 300 302 303 306 309 313 315 314 314 313 313 314 312 312 313 314 314 315 315 315 316 317 318
300 299 301 301 301 302 302 301 300 300 300 301 301 300 299 299 299 300 301 300 303 297 295 293 293 292 291 290 290 289 289 288 288 289 289 290 290 291 291 291 291 292 291 292 293 293 293 294 295 296 297 298 301 305 303 302 300 300 300 301 301 301 299 299 298 298 297 297 296 297 297 296 297 297 297 299 301 302 304 306 309 311 311 308 308 309 309 309 310 312 314 314 315 315 315 315 315
300 300 300 300 299 299 299 300 301 301 302 301 299 298 300 299 302 299 300 302 298 293 292 291 290 289 289 288 288 288 287 287 288 287 288 289 289 289 289 290 290 290 290 291 291 291 292 292 292 293 295 297 299 302 304 301 299 298 297 298 299 299 297 297 296 295 295 294 294 294 295 295 295 294 294 296 298 300 301 303 304 305 305 304 304 304 305 307 309 310 311 313 314 315 315 315 313
300 299 298 298 298 298 300 300 299 299 301 300 298 296 298 301 300 293 298 300 292 291 289 289 288 286 287 287 287 287 286 286 286 287 287 288 288 288 288 289 289 289 289 288 289 289 291 290 290 291 292 295 297 298 301 300 298 296 296 296 296 296 295 294 293 293 292 292 290 291 292 293 292 292 292 293 296 297 298 299 300 301 301 301 303 303 303 304 307 309 310 311 312 313 315 315 313
298 298 296 294 295 296 296 297 296 298 299 299 298 295 292 292 298 294 298 294 291 288 287 287 286 285 285 286 286 286 286 286 286 286 285 285 286 287 286 287 288 288 287 286 287 288 288 288 288 289 290 292 294 296 298 299 296 295 295 294 294 293 293 291 290 290 290 290 289 288 289 290 290 289 290 291 293 294 295 296 297 297 297 299 300 301 301 302 305 308 309 309 311 311 312 313 312
297 295 294 291 291 292 293 294 295 298 297 294 292 290 288 287 294 298 295 291 289 287 285 285 285 285 285 285 285 285 285 285 285 285 285 285 286 286 285 286 287 287 288 287 286 286 286 287 287 287 287 289 290 293 296 297 296 294 293 292 291 292 291 290 288 288 287 287 287 287 287 288 287 286 287 289 291 291 293 294 294 294 294 296 298 299 299 300 303 305 305 306 307 307 308 307 309
297 294 291 289 286 287 292 294 295 297 296 293 293 282 280 284 288 293 291 289 288 286 284 284 284 284 284 284 284 284 284 284 284 284 285 285 285 285 284 285 285 285 286 286 285 284 285 286 285 285 286 286 288 290 293 295 296 294 293 291 290 289 289 288 287 286 286 285 285 285 285 286 285 285 285 286 288 289 289 291 291 291 291 293 296 297 297 299 300 302 302 303 303 303 303 304 304
292 291 288 284 284 281 291 293 294 296 295 292 289 280 277 285 291 291 290 289 286 284 284 284 283 283 283 283 283 282 283 283 283 284 284 284 284 284 284 283 283 284 284 284 283 283 283 284 284 282 284 283 285 287 289 291 296 295 292 290 288 287 287 286 286 285 284 284 283 283 283 284 283 282 283 285 285 286 287 287 288 288 289 291 293 295 296 297 298 299 300 299 299 300 301 301 301
289 284 280 279 285 281 288 292 296 293 293 289 286 278 281 285 288 291 289 288 286 283 283 283 283 282 282 282 282 282 282 283 283 283 283 283 283 283 283 282 282 282 281 282 282 282 281 282 282 281 281 281 283 285 286 288 290 295 292 291 288 286 285 284 284 283 283 282 282 281 281 282 281 281 281 283 283 284 284 285 285 286 287 289 290 292 293 294 295 295 296 297 295 296 298 298 300
281 283 278 283 282 282 287 291 290 294 290 289 287 282 283 288 288 288 288 287 285 283 282 282 282 282 282 282 281 281 281 281 281 281 282 282 282 282 282 281 281 281 281 280 280 280 280 280 280 279 279 280 281 282 284 285 286 289 292 288 287 285 283 283 283 282 281 281 280 279 280 280 280 280 280 281 281 282 282 282 283 284 285 286 288 289 291 292 292 292 293 294 294 294 295 296 298
280 282 282 280 282 282 284 287 289 288 290 288 286 283 283 283 287 287 287 286 284 282 282 282 282 281 281 281 280 279 279 279 279 280 280 281 281 281 281 282 280 280 280 279 279 279 278 278 278 279 278 279 279 280 282 282 284 286 287 287 285 284 283 282 281 281 280 279 279 278 278 278 279 278 278 279 279 281 280 280 281 282 283 284 285 287 288 290 291 290 290 291 292 292 292 293 295
278 283 283 284 283 283 283 284 289 289 287 287 285 284 283 284 286 285 286 286 283 282 281 281 281 280 280 279 278 278 278 277 278 279 280 280 280 280 280 279 279 279 278 278 277 278 277 277 277 277 276 277 278 279 280 280 281 283 284 285 283 282 281 281 280 279 279 278 278 278 277 277 277 277 277 277 277 278 278 279 279 280 281 282 283 285 286 287 287 287 288 289 290 291 291 292 293
282 283 282 281 283 282 283 286 288 289 284 284 284 284 284 285 284 284 284 284 282 281 282 281 280 280 279 278 278 277 277 277 278 279 279 279 279 279 279 278 278 277 277 277 277 276 276 275 275 275 275 275 277 277 278 278 278 279 279 280 281 280 279 279 278 278 278 277 277 277 276 276 276 276 276 276 276 277 277 277 278 279 280 280 281 282 283 284 284 284 286 287 288 289 291 292 292
286 282 281 282 281 282 284 286 288 287 286 284 284 284 283 281 282 283 283 283 282 281 280 280 279 278 278 277 276 276 276 276 277 278 278 278 278 278 278 277 277 276 275 275 275 274 274 274 274 273 274 274 274 275 276 276 275 276 277 277 277 278 277 277 277 276 277 276 276 276 275 275 275 275 275 275 275 275 276 276 276 277 278 279 280 281 282 282 283 283 284 286 286 286 287 289 290
285 282 281 282 282 283 284 287 290 288 286 283 282 282 279 280 282 283 283 282 280 280 279 279 278 278 277 276 276 276 276 277 276 276 276 276 276 277 276 276 276 273 273 273 273 273 273 273 272 272 273 273 273 274 275 275 275 275 275 276 276 277 275 275 274 275 275 276 275 274 274 274 274 274 274 274 274 274 274 274 275 275 277 277 279 280 280 281 281 281 282 283 285 285 285 287 288
283 283 280 281 280 282 285 287 287 288 284 283 283 280 278 279 280 280 280 280 280 280 280 279 277 276 276 276 275 275 275 274 275 274 275 275 275 275 275 274 274 274 273 272 272 272 272 272 272 272 271 272 272 273 274 273 275 275 275 275 275 275 276 275 275 274 274 274 273 273 274 273 273 273 273 273 273 273 274 274 274 275 276 277 277 277 278 278 279 279 280 281 281 284 284 286 286
280 280 280 279 279 281 278 284 285 286 283 282 282 277 278 279 279 278 279 278 277 277 277 276 277 275 275 275 275 274 273 273 273 273 273 273 273 273 274 273 273 273 272 272 271 271 271 271 271 271 271 271 271 272 274 273 274 274 275 275 275 275 273 274 273 273 273 273 271 272 272 273 273 272 272 272 272 272 273 273 273 274 275 276 277 276 276 276 277 278 278 280 280 279 281 282 285
281 281 277 278 281 280 279 282 284 281 283 283 280 278 276 278 276 276 278 279 277 277 276 276 276 276 275 275 274 274 273 272 272 272 272 272 272 272 272 272 272 271 271 271 270 270 271 270 270 271 270 270 270 271 271 272 272 272 273 273 273 273 273 271 271 270 270 271 271 271 271 272 272 272 272 271 272 272 272 273 273 274 275 275 276 275 275 275 276 276 277 277 278 278 278 280 282
279 280 282 281 280 282 282 282 282 277 277 281 282 275 273 275 276 276 276 276 275 276 275 274 275 275 274 273 273 273 273 273 272 271 271 271 271 271 271 272 271 271 270 271 271 270 270 270 270 270 270 270 270 270 270 271 270 270 269 269 268 269 268 268 267 268 268 269 269 271 271 271 271 271 271 271 271 271 271 272 273 273 274 275 275 275 275 274 274 275 276 276 276 278 277 277 278
279 282 283 283 282 282 281 280 279 274 274 280 280 276 265 275 275 275 275 274 273 274 274 274 274 273 273 272 272 272 272 272 272 272 271 271 271 270 270 270 271 270 270 271 271 270 270 270 270 270 270 269 270 269 269 271 269 269 269 269 269 267 267 268 268 269 268 269 269 269 270 270 270 270 270 270 270 270 271 271 272 272 273 274 275 274 273 273 273 274 275 274 275 276 276 275 276
279 282 282 282 282 281 280 279 280 276 278 279 280 275 268 269 275 275 275 273 273 272 273 272 272 272 272 272 272 271 271 271 271 270 270 270 270 270 269 270 270 270 270 270 270 270 270 269 269 269 269 269 269 269 269 269 269 268 268 268 269 267 267 267 268 268 269 270 268 268 269 269 269 269 269 269 269 269 270 270 271 271 272 273 274 273 272 273 273 273 274 274 274 274 275 274 274
280 284 282 282 283 280 280 280 278 278 277 274 277 279 275 270 273 275 275 272 271 271 272 272 271 272 271 271 271 271 271 271 271 270 270 270 269 270 270 269 270 271 270 270 269 270 270 269 269 269 269 269 269 269 269 268 269 268 267 267 266 268 268 267 268 268 267 268 267 268 268 268 268 268 269 268 268 268 269 269 270 270 271 272 273 272 272 272 272 272 271 272 272 273 274 273 274
285 284 282 281 281 280 279 276 278 276 274 269 276 278 272 269 272 273 275 272 271 271 272 271 272 271 271 271 271 271 271 271 271 271 270 270 270 270 270 270 270 270 270 270 270 270 269 269 269 269 268 268 268 268 268 268 267 268 267 266 266 266 267 267 267 266 266 267 266 266 267 267 267 267 268 268 268 268 268 269 269 270 270 271 272 272 271 271 271 271 271 271 271 271 272 272 272
284 283 282 279 279 278 277 276 274 271 267 273 277 278 278 269 272 274 273 273 274 272 271 271 271 271 271 271 271 271 271 271 271 271 270 270 270 270 270 269 269 270 270 270 269 269 269 269 268 268 268 268 268 268 267 267 267 267 266 266 266 265 265 266 265 265 266 265 265 265 266 266 267 266 267 267 267 267 267 268 268 269 270 270 271 272 271 271 271 271 271 271 270 271 270 271 271
283 280 277 276 278 276 274 272 273 268 263 271 275 277 278 269 271 274 274 274 274 272 270 269 270 270 270 271 271 271 271 271 271 270 270 270 270 270 270 269 269 269 269 269 269 269 269 268 268 267 267 267 267 267 267 267 266 266 266 266 265 265 265 265 264 264 265 264 265 264 265 265 266 266 266 266 266 266 266 267 268 268 268 269 269 271 271 270 271 271 270 270 269 270 270 270 270
281 278 277 272 265 266 268 269 267 266 267 271 274 276 275 274 271 273 273 273 273 274 272 270 270 270 270 270 271 271 271 270 270 270 270 269 269 268 268 268 268 268 268 268 268 268 268 268 268 267 266 267 267 267 266 266 266 266 266 265 265 265 265 264 264 264 265 264 265 264 264 264 265 264 265 264 265 265 265 266 266 267 267 268 268 269 270 270 270 270 270 269 269 269 269 269 269
279 278 273 268 266 265 260 262 263 264 273 276 275 277 272 272 271 273 272 272 273 273 272 272 271 270 270 270 271 270 270 270 270 270 269 269 269 269 268 268 268 268 268 268 268 268 268 267 267 266 266 267 266 266 266 266 266 265 265 265 265 265 264 264 264 264 264 264 265 264 264 264 263 263 264 264 265 265 265 265 266 266 266 267 267 268 269 270 270 269 270 269 268 269 269 268 268
280 278 278 273 263 262 262 263 265 265 266 272 274 273 264 269 269 272 272 272 272 272 272 272 271 271 271 271 271 270 270 270 269 269 269 269 269 269 268 268 268 268 268 268 268 268 267 267 267 266 266 266 266 266 266 265 265 265 265 265 265 265 264 264 264 264 264 263 264 264 264 264 263 263 263 264 264 264 264 265 265 265 265 266 266 267 268 269 270 269 270 268 268 269 268 268 267
279 279 278 274 271 270 268 261 260 262 265 268 268 266 268 268 272 273 272 272 271 272 271 271 270 270 270 270 270 269 269 269 269 269 269 269 269 269 268 268 268 268 268 268 267 267 267 266 266 266 266 266 266 266 265 265 265 265 265 264 264 264 264 264 264 263 263 264 263 263 263 263 263 263 263 263 263 264 263 264 264 264 265 265 265 266 267 268 269 268 269 267 267 269 267 267 267
278 279 272 274 277 275 267 270 273 271 264 265 267 268 270 271 271 271 271 270 270 270 270 270 270 270 270 269 269 269 269 269 269 268 268 268 269 269 269 268 268 268 268 267 267 267 267 266 266 265 265 265 265 265 265 265 264 264 264 264 263 263 263 262 262 262 262 263 262 262 262 262 263 262 262 263 262 263 263 263 263 263 263 264 264 264 265 266 268 268 267 266 265 267 266 266 267
278 273 277 279 280 278 274 267 261 259 263 264 270 268 265 268 263 270 269 268 269 269 269 269 269 269 269 269 269 268 268 268 269 269 269 269 268 268 269 269 269 268 268 268 268 268 267 267 266 265 264 264 264 264 264 264 263 263 263 263 263 262 262 262 262 262 262 261 261 262 262 261 262 262 262 262 262 262 262 263 262 262 263 263 263 263 264 265 267 267 266 265 266 266 265 266 266
279 276 278 278 269 270 268 265 263 261 259 259 264 268 266 269 267 267 268 267 268 268 269 268 268 268 268 268 268 268 269 268 268 268 268 268 268 268 268 269 269 269 269 268 268 268 267 267 266 266 264 264 264 264 264 263 263 263 263 262 262 262 262 262 262 262 262 260 260 261 260 261 261 261 261 261 261 261 262 262 262 261 261 262 262 262 263 264 266 267 266 265 264 264 264 264 265
282 281 281 279 275 264 266 269 262 262 259 258 261 261 267 272 270 269 269 269 269 268 268 268 268 268 268 268 268 268 268 268 268 268 268 268 269 269 269 269 269 269 269 268 268 268 267 267 266 266 266 265 263 263 263 263 263 262 262 262 262 262 261 261 261 261 260 260 260 260 260 260 260 260 261 261 260 261 261 260 261 260 260 261 261 261 262 263 264 265 266 265 263 263 263 262 263
277 276 273 276 272 276 271 269 267 267 257 256 257 261 260 268 270 271 271 271 270 269 268 268 268 268 268 268 268 268 268 268 268 268 268 268 269 269 269 270 269 269 269 268 268 267 267 267 266 266 265 265 263 263 262 262 262 261 261 261 261 261 261 261 260 260 260 259 259 260 259 260 260 259 260 260 260 260 260 260 260 260 260 260 260 260 260 262 263 263 265 265 262 263 262 262 262
277 277 273 276 270 271 268 267 267 263 266 262 257 265 261 269 270 271 273 271 270 270 268 268 268 268 268 268 268 268 267 268 268 268 268 268 269 269 269 269 269 268 268 267 267 267 266 266 266 265 265 264 264 262 261 261 261 261 260 260 260 260 260 260 259 259 259 259 259 259 259 259 258 259 260 259 259 259 259 260 259 259 259 259 259 259 259 260 260 262 262 264 263 261 261 261 261
Wind_Speed
8 7 7 7 3 0 2 5 3 2 2 1 1 0 2 0 2 3 3 6 2 2 2 3 1 1 3 5 11 7 6 2 1 2 2 1 1 3 7 8 7 7 7 4 5 5 5 6 6 6 7 7 7 8 8 7 6 6 6 7 7 8 8 8 8 8 8 8 8 8 8 8 8 8 8 8 8 9 9 9 9 9 9 9 9 9 9 10 9 10 11 11 12 12 12 12 11
6 7 7 5 3 1 1 1 3 1 4 2 4 1 1 3 2 1 3 3 0 3 7 1 9 12 15 12 7 4 9 6 2 3 2 0 2 3 6 8 8 10 7 5 5 5 4 5 7 6 7 7 7 7 8 6 6 6 6 6 7 6 7 7 7 7 7 7 7 7 7 7 8 8 8 8 8 8 8 8 8 9 9 9 9 9 9 10 10 9 9 10 11 11 12 12 11
6 7 7 4 2 3 0 3 1 2 3 3 3 2 2 3 1 3 3 4 6 8 5 1 5 4 3 3 8 4 1 4 5 3 2 2 2 2 4 4 5 9 8 4 4 4 4 5 8 7 7 7 7 7 7 5 6 5 6 7 7 7 6 6 6 6 6 7 7 7 7 7 8 7 8 8 8 8 8 9 9 9 9 9 9 9 9 9 9 10 10 10 11 11 11 11 11
6 5 3 2 0 4 2 3 3 6 4 4 0 2 1 2 0 4 4 4 7 7 5 3 3 5 5 10 4 5 4 2 2 0 2 2 1 3 2 8 6 6 5 4 4 4 3 5 7 7 7 8 8 8 7 6 6 5 6 6 5 5 5 5 5 5 6 6 6 6 6 7 7 8 8 8 8 7 8 8 9 9 9 10 9 9 9 9 9 9 9 9 9 9 9 9 9
6 5 3 1 3 1 3 2 4 3 3 3 3 1 0 1 1 4 5 6 7 10 7 3 3 5 4 6 1 2 2 0 3 2 1 1 3 2 9 8 7 7 5 5 5 4 4 7 7 7 8 9 8 8 7 6 7 6 6 6 6 6 6 6 6 6 6 5 5 5 6 6 6 7 7 7 7 7 7 7 7 8 8 9 9 9 8 8 8 8 7 8 9 9 8 8 8
7 6 0 2 1 3 4 2 1 3 3 3 2 1 1 1 1 3 5 8 5 9 6 7 2 0 4 3 1 2 1 2 1 2 1 3 4 10 9 8 8 8 6 5 4 4 4 7 8 8 8 8 9 10 10 11 11 11 11 11 10 9 9 8 7 7 6 6 6 5 5 5 5 6 7 7 7 8 8 8 7 7 8 8 8 7 7 7 7 6 6 6 7 7 8 8 8
4 3 3 3 2 3 3 3 3 2 0 1 2 2 3 2 2 3 6 10 4 8 10 6 7 2 7 0 3 2 2 1 1 2 2 1 7 8 10 9 9 7 6 4 4 4 5 8 8 8 9 10 10 11 11 10 10 10 9 9 8 8 7 7 6 6 5 5 5 5 5 5 5 5 5 5 6 6 7 7 7 7 7 7 7 6 7 6 6 6 5 5 6 7 7 8 8
3 1 0 2 1 2 2 1 0 1 1 1 3 5 3 2 2 3 2 2 4 7 9 5 8 3 3 1 4 3 6 5 2 1 3 5 6 7 8 8 9 6 5 4 4 4 6 9 9 9 9 10 10 10 9 9 9 9 8 7 7 6 6 5 5 5 5 5 5 5 4 4 4 4 4 4 4 5 5 6 7 7 7 7 6 7 7 7 7 6 5 6 7 7 8 8 8
2 2 0 4 3 2 3 1 2 0 1 0 3 2 4 5 3 3 5 3 1 4 8 10 9 3 1 6 4 2 2 5 5 5 5 6 7 5 6 8 9 6 5 5 5 5 6 8 9 9 9 8 8 8 7 7 6 6 5 5 5 4 4 4 3 2 3 2 2 2 2 3 4 4 4 5 4 5 5 6 7 8 8 8 8 8 8 8 8 8 6 6 7 8 8 8 8
1 2 1 1 3 4 1 3 0 1 1 2 2 4 7 6 7 7 5 2 1 1 2 5 6 9 3 7 2 3 3 5 3 5 4 4 5 8 9 8 8 8 5 4 4 4 4 7 10 10 10 8 7 6 6 6 6 6 6 6 6 6 6 6 6 5 3 1 2 1 2 2 2 4 4 5 6 7 7 8 9 10 10 10 10 10 10 9 9 8 8 7 8 8 9 9 8
1 2 1 2 4 3 2 4 1 1 1 2 2 2 4 3 7 8 6 6 3 2 3 4 5 3 3 3 2 2 4 4 4 2 2 4 6 8 8 7 7 8 8 8 8 7 7 7 11 11 9 9 8 9 8 7 6 6 6 7 7 7 8 9 9 9 8 8 4 2 3 4 5 5 6 7 7 8 8 9 10 11 11 11 12 12 12 11 10 9 9 9 9 9 9 9 10
1 1 2 2 4 4 3 2 2 4 3 1 1 4 3 7 5 6 4 10 7 2 3 3 2 3 5 2 2 3 5 0 1 1 1 5 6 6 8 9 12 13 12 11 11 11 10 10 11 14 17 18 17 13 13 15 15 14 13 11 11 9 8 8 8 8 9 10 11 10 9 8 6 7 8 8 9 9 9 10 9 10 10 10 12 13 13 13 12 11 10 11 11 12 11 11 9
2 0 3 5 2 3 2 2 2 1 2 1 2 2 7 13 10 10 9 8 9 9 3 9 5 2 3 3 2 4 3 6 3 2 3 3 5 10 15 15 16 17 16 14 14 13 13 11 11 11 13 17 16 17 15 13 15 15 15 14 13 12 11 9 8 9 9 9 10 10 9 9 9 8 9 9 9 10 8 9 9 8 9 9 11 12 11 12 12 12 12 13 13 13 13 12 10
1 2 3 2 1 2 3 1 1 3 1 2 2 3 2 4 4 11 9 7 9 6 4 11 6 3 6 5 2 3 5 5 5 5 3 4 9 15 16 14 16 16 15 16 14 13 13 11 11 11 11 11 11 12 14 13 14 14 16 15 16 15 14 13 11 9 9 9 9 10 8 10 10 11 10 9 9 8 9 8 8 7 8 8 9 9 9 10 10 11 11 12 13 13 13 12 10
1 1 2 3 1 2 1 2 2 1 4 1 4 1 4 2 5 4 6 6 4 1 3 3 5 6 4 6 3 6 8 7 6 4 4 12 16 15 15 13 14 15 15 15 14 14 13 12 12 11 12 12 12 10 10 13 20 19 18 18 15 18 20 17 18 19 19 17 16 13 9 8 9 10 10 10 9 10 10 9 8 8 8 8 8 8 8 8 9 9 10 11 11 12 13 12 11
1 3 2 2 1 3 2 1 0 2 1 1 4 2 9 2 1 3 1 1 1 1 1 3 1 2 6 5 6 9 8 7 6 3 8 14 14 12 12 12 12 12 13 14 14 13 12 14 12 11 12 12 11 10 12 12 16 19 20 22 23 23 22 22 21 17 17 16 15 13 16 11 8 7 11 7 9 10 10 9 10 9 9 9 8 8 8 8 9 9 10 10 11 12 12 12 11
2 3 2 2 2 2 1 1 4 2 1 3 3 3 5 2 2 1 1 3 3 1 1 2 2 3 8 4 8 6 3 4 5 5 10 10 10 9 10 10 9 12 10 14 14 13 13 14 15 12 13 13 12 11 11 12 13 17 16 19 21 22 22 21 22 20 18 17 17 16 13 10 9 8 9 9 11 10 12 13 13 12 13 11 9 11 11 10 10 10 10 10 10 10 11 11 11
2 1 4 4 2 1 5 2 4 3 2 1 3 1 7 4 1 1 2 8 4 4 7 2 4 2 2 3 5 3 8 12 12 16 13 10 9 9 11 10 12 12 11 11 14 15 13 13 14 14 12 13 12 10 9 10 11 14 14 13 13 15 16 16 15 15 15 14 18 15 12 11 10 10 11 12 9 11 10 15 15 15 15 14 13 14 14 14 14 14 13 12 12 10 11 7 6
2 1 3 3 2 2 5 2 4 1 4 2 3 3 4 1 0 1 4 4 4 8 4 3 6 4 5 8 14 17 18 17 18 17 17 16 13 14 11 10 12 12 13 12 12 16 13 11 13 14 14 13 13 12 10 10 12 12 12 12 11 14 13 14 13 14 14 14 13 12 10 10 10 9 10 12 11 14 14 16 17 17 17 17 16 13 12 14 14 15 15 15 15 13 7 5 5
2 3 2 0 3 1 1 1 2 2 1 2 4 2 6 2 1 1 3 5 7 6 4 6 5 4 5 13 14 16 19 18 17 18 18 17 15 13 13 13 12 12 12 11 11 12 14 13 14 13 13 13 12 11 10 11 11 11 10 10 10 11 11 11 12 13 14 15 14 12 11 11 11 10 13 17 14 11 11 14 16 15 15 15 17 10 12 14 16 14 15 15 10 7 7 6 6
1 3 1 2 2 3 4 7 1 2 3 1 2 1 5 4 3 1 4 9 4 1 1 7 5 6 13 14 13 15 18 19 18 18 18 17 15 13 12 12 11 10 9 9 11 13 15 14 13 13 13 13 13 11 12 11 10 10 10 10 10 10 10 11 12 13 14 14 13 12 12 11 12 12 12 11 10 10 11 10 11 10 9 9 13 9 9 9 9 10 10 10 8 8 8 8 6
1 2 3 3 1 3 6 7 10 6 4 7 3 3 0 1 3 4 4 7 2 3 1 5 7 7 16 16 13 17 19 19 18 18 18 17 17 14 12 11 11 10 9 12 13 13 15 15 14 11 11 12 13 12 11 11 12 11 11 11 11 10 11 12 12 11 12 14 12 12 11 13 13 12 12 12 11 10 10 9 9 9 9 9 9 8 9 9 9 8 9 9 8 8 8 7 7
1 2 2 4 2 1 3 3 6 5 3 4 3 2 2 2 1 0 4 4 2 3 1 6 17 18 17 15 15 19 19 20 19 18 16 17 15 14 13 11 11 11 10 12 11 12 13 15 15 14 13 11 13 12 10 11 12 10 10 12 12 12 11 12 12 11 12 12 13 13 12 11 11 11 12 12 12 12 10 10 10 9 9 10 10 9 11 10 8 9 8 8 8 8 9 8 8
2 2 0 1 3 3 5 5 4 4 8 4 2 2 2 3 1 1 1 2 1 3 16 18 19 18 17 21 19 18 17 17 17 15 14 14 14 14 12 12 10 9 12 12 12 12 13 16 15 15 13 13 9 11 12 13 12 11 11 11 12 13 12 12 11 11 12 12 14 12 12 10 11 11 11 11 12 11 11 11 9 8 8 9 10 10 11 11 11 9 9 9 9 8 8 8 8
3 1 0 1 3 1 1 0 1 1 1 4 6 2 2 2 1 1 1 1 5 18 16 19 20 20 20 19 17 17 18 16 17 14 13 11 12 12 13 11 12 13 15 14 12 14 16 14 16 17 15 15 11 9 11 11 11 11 12 12 13 13 12 11 12 11 11 11 12 13 13 12 12 11 12 11 9 10 10 11 11 10 9 9 9 9 10 10 11 10 10 9 9 8 8 8 8
2 3 0 1 0 1 2 2 1 1 1 3 4 1 1 2 2 0 3 2 14 16 19 16 21 21 19 18 17 16 16 16 13 14 13 11 11 15 14 12 12 17 14 13 14 13 13 15 16 16 15 13 12 11 10 12 12 13 13 12 11 12 12 12 12 11 11 11 12 13 13 11 11 10 10 10 11 12 11 12 11 11 10 10 10 11 10 9 9 9 9 10 10 10 8 8 7
1 1 1 1 0 2 0 1 1 1 2 3 2 2 3 0 2 2 2 8 20 21 18 17 22 19 17 15 14 14 16 15 14 11 13 11 13 14 12 13 15 14 14 15 13 11 10 13 15 15 15 14 12 12 11 13 13 13 12 11 11 12 12 12 11 11 11 12 13 14 13 13 11 11 11 11 10 10 10 11 12 11 11 12 11 10 10 10 10 9 9 9 9 10 9 8 7
2 2 1 4 7 3 2 1 3 1 0 2 4 1 1 2 1 2 0 16 19 21 18 18 18 16 15 15 15 13 14 11 10 13 16 15 12 11 13 12 12 13 16 15 12 11 12 14 14 15 15 14 14 13 11 13 14 12 12 11 12 12 11 11 11 11 12 10 13 14 13 13 13 12 13 13 12 12 11 11 11 12 12 11 11 10 11 10 9 9 9 9 9 8 9 8 8
0 3 2 5 6 5 4 3 1 3 2 3 3 2 1 2 5 5 7 16 20 21 18 18 17 14 14 13 13 13 12 11 11 15 14 13 12 13 17 15 13 13 12 14 14 14 17 14 14 15 15 15 15 13 11 11 12 11 11 11 10 10 11 10 10 11 11 10 10 12 12 14 13 13 13 13 13 12 12 12 12 12 12 12 12 12 12 10 10 11 10 9 9 9 9 10 10
1 4 1 5 6 6 5 2 2 4 1 2 3 2 5 4 7 5 14 17 20 20 15 13 13 12 12 12 13 13 12 13 16 14 12 12 13 15 17 16 16 13 11 11 14 16 13 11 11 11 14 15 15 13 11 8 9 10 10 10 10 10 10 11 10 10 11 10 11 13 12 14 14 12 13 13 13 12 12 12 13 13 13 14 13 12 12 10 10 11 11 10 9 9 9 9 9
0 1 3 0 1 3 5 1 5 6 1 1 3 2 3 4 1 4 10 18 22 17 13 12 12 13 12 12 13 14 14 14 15 15 16 16 14 14 17 16 17 16 13 13 16 14 15 14 12 10 14 14 14 14 14 12 9 10 10 10 11 11 10 11 11 10 10 10 11 11 13 13 15 14 13 12 12 11 11 11 12 11 13 13 12 12 12 11 11 12 11 12 11 10 9 9 9
1 2 3 3 2 4 6 3 7 7 1 4 6 1 3 3 3 1 12 17 22 17 13 12 12 12 12 11 13 13 14 13 15 16 16 16 15 14 15 16 14 15 15 13 12 14 15 15 15 14 15 15 15 14 13 12 11 9 10 10 10 11 10 11 11 10 11 9 10 11 13 13 13 14 13 12 11 11 10 10 10 12 14 12 11 12 11 11 12 12 12 12 12 13 12 12 9
3 3 3 1 1 4 3 2 3 1 5 4 2 3 1 0 4 7 13 18 20 18 14 12 13 12 11 11 11 11 12 13 14 15 16 14 14 14 13 13 13 13 14 14 13 12 14 14 14 15 15 14 13 14 14 13 12 11 10 12 12 11 11 11 10 9 10 10 10 10 12 12 12 12 13 12 11 10 10 10 10 12 12 11 10 10 10 10 11 12 12 11 10 10 12 14 12
3 1 3 2 2 1 1 4 3 2 4 2 3 3 3 2 2 10 11 17 18 17 14 13 11 11 11 11 12 12 12 12 14 13 14 13 12 14 13 13 13 14 14 15 15 14 14 13 13 14 13 13 12 12 13 12 11 11 10 10 12 11 12 10 9 9 9 9 9 10 12 11 13 13 13 12 10 10 10 10 11 13 12 11 10 10 10 11 11 11 12 12 11 10 10 11 13
4 3 1 1 1 1 3 2 2 2 3 6 1 2 3 3 5 12 9 13 18 15 13 13 12 12 11 12 12 13 13 13 13 11 12 12 13 12 12 13 13 14 12 13 15 13 12 12 12 13 13 13 12 11 12 11 11 10 10 10 11 11 10 9 10 9 9 9 10 11 12 11 12 12 13 13 12 11 10 11 11 13 12 11 11 10 11 12 13 12 13 13 11 9 9 9 10
2 7 5 4 3 1 2 2 2 3 2 4 3 4 4 2 11 9 9 10 18 15 13 12 12 11 11 11 11 11 12 13 10 11 11 11 12 13 10 11 12 12 12 12 14 13 13 12 11 11 13 12 10 9 9 9 9 10 9 8 9 10 9 9 9 9 9 9 11 11 11 11 11 12 13 12 12 11 11 11 12 12 12 12 11 12 13 12 14 15 14 13 14 12 10 10 11
4 3 4 4 4 3 3 3 2 1 3 2 4 1 8 12 9 9 8 12 14 13 12 11 10 11 11 11 11 12 12 12 9 11 12 12 12 11 11 11 11 12 13 14 13 15 15 13 12 14 12 11 10 11 11 11 11 9 9 10 10 9 9 9 9 9 9 9 12 11 12 11 12 13 13 12 12 12 11 11 11 12 12 11 11 12 13 13 12 12 12 11 13 14 11 11 12
5 4 4 2 1 3 2 2 0 2 4 1 2 10 10 8 8 7 6 11 12 10 11 11 11 10 10 11 11 11 10 8 10 11 13 12 12 12 11 11 13 15 16 15 16 15 14 14 15 13 12 12 12 11 10 10 11 10 8 8 8 8 10 10 10 10 9 9 11 12 11 11 12 13 13 12 12 11 11 11 11 11 12 10 10 11 11 12 12 12 12 11 10 11 10 12 12
2 4 3 2 5 2 3 0 2 1 4 3 2 11 8 8 9 11 10 10 9 8 8 9 11 10 9 9 10 9 9 9 10 11 12 12 13 13 11 12 12 12 13 14 14 14 15 15 14 13 12 12 12 12 11 11 10 10 10 8 9 7 8 8 8 9 9 10 11 12 12 12 12 11 13 13 11 11 11 11 11 11 11 12 11 11 11 12 12 13 13 11 12 9 8 8 11
5 3 3 5 3 3 3 1 2 3 3 3 5 12 7 6 10 13 10 9 11 13 13 13 10 10 10 9 8 8 9 9 10 11 11 12 12 11 12 14 12 11 13 13 15 15 12 14 13 13 12 12 12 13 13 12 12 11 9 10 9 9 9 9 9 10 11 13 13 12 12 12 13 11 12 13 12 11 12 11 11 11 11 11 10 11 12 12 12 12 12 12 11 11 10 9 9
1 3 3 2 2 2 5 4 0 2 2 3 10 9 4 2 4 6 8 7 11 10 11 10 10 10 10 10 11 10 10 9 10 11 12 12 14 14 13 13 11 13 13 14 14 14 11 14 14 13 12 12 12 13 12 11 10 10 8 8 8 8 8 10 10 12 12 12 11 12 12 11 12 11 12 13 13 12 12 11 12 11 11 12 10 10 10 11 12 11 13 12 12 10 11 9 9
1 3 6 4 3 4 0 2 3 1 2 2 6 1 1 3 4 6 4 5 8 7 9 9 8 8 8 10 10 9 11 10 12 12 12 13 13 13 13 13 13 12 14 13 12 13 13 13 14 14 11 11 12 13 12 10 10 10 10 11 12 11 11 13 13 13 12 11 11 9 10 11 12 12 12 13 15 13 13 13 13 13 12 11 11 10 10 11 12 13 12 11 12 12 10 10 10
1 3 3 3 5 6 5 2 4 1 3 2 1 9 3 2 3 3 4 5 7 5 7 7 7 8 8 8 7 8 8 10 11 12 12 13 13 13 13 14 13 13 12 11 11 12 13 13 13 13 11 11 11 13 13 10 11 10 12 10 10 10 9 9 8 9 9 9 9 11 10 10 12 12 14 13 14 14 13 13 14 13 12 11 11 11 11 12 11 12 12 11 11 10 11 10 11
2 2 4 6 6 5 4 5 5 2 1 4 1 3 3 3 5 6 4 6 4 6 6 7 8 8 8 8 9 9 9 9 10 11 12 12 13 13 13 13 12 12 11 11 10 10 13 13 12 12 10 11 11 11 12 12 10 11 11 11 9 10 10 9 10 9 9 8 10 10 10 10 11 12 12 13 13 14 13 12 13 13 13 12 11 11 12 12 11 11 12 12 10 10 10 9 10
3 3 6 3 3 3 3 3 1 0 1 6 5 0 2 2 2 6 6 6 3 4 5 6 7 8 8 9 9 9 10 10 11 10 11 11 11 12 11 11 11 10 10 11 10 10 11 12 12 11 11 11 11 14 12 12 12 11 10 9 9 8 8 8 8 9 10 9 10 11 10 10 10 11 11 13 12 14 13 12 13 13 13 13 11 11 12 13 13 13 13 13 12 11 9 9 9
1 4 5 5 4 3 5 3 5 1 2 6 8 4 4 4 5 7 3 2 6 5 6 7 5 6 7 7 8 8 8 9 10 11 10 10 9 9 9 9 10 10 10 11 10 10 10 9 10 10 11 9 10 11 11 12 12 10 9 10 10 8 7 7 7 9 9 9 10 11 10 10 10 10 11 12 12 13 13 13 12 13 13 12 11 11 14 13 13 12 12 12 12 12 9 10 9
4 4 3 5 6 3 2 5 3 3 3 8 8 6 9 6 9 11 11 6 7 8 6 6 6 7 7 7 6 6 7 8 8 8 9 9 9 8 9 10 10 10 10 9 8 8 7 8 8 10 10 9 10 10 11 11 10 10 9 9 10 10 10 9 9 10 9 10 9 10 10 9 9 9 10 10 11 13 12 12 11 12 11 11 12 11 12 12 12 10 10 11 12 12 10 11 10
4 1 2 4 2 4 3 2 4 2 6 7 4 8 7 10 1 7 2 1 12 12 11 10 8 7 6 6 6 7 7 7 7 7 7 8 8 8 8 9 9 9 8 7 6 7 7 7 8 10 10 10 10 10 11 11 9 9 9 9 9 10 10 9 10 10 11 11 10 10 9 9 9 9 9 10 11 13 12 11 12 12 11 12 11 11 8 10 11 9 9 9 10 11 10 11 9
6 5 5 5 3 2 1 1 2 5 6 2 0 3 1 8 1 1 3 6 8 7 9 10 9 8 7 7 7 6 6 7 7 6 7 6 7 7 8 8 8 8 7 6 7 6 7 8 9 9 10 10 9 9 10 10 10 10 9 9 9 8 10 10 9 9 10 9 9 10 10 10 10 10 11 10 11 13 11 11 12 12 11 11 11 11 10 9 9 9 9 10 11 11 10 11 9
5 5 5 4 1 1 3 4 1 4 6 4 5 4 3 1 2 2 3 4 6 9 9 10 9 9 8 7 7 6 7 6 6 6 6 6 6 6 7 6 6 6 6 6 7 7 6 7 8 8 9 9 8 8 9 9 9 9 9 9 9 8 9 9 9 8 9 8 8 9 9 9 10 10 11 11 11 12 11 11 11 11 11 11 11 11 12 10 10 10 8 10 11 9 10 11 10
7 3 7 7 6 4 3 3 4 5 6 2 3 4 4 4 1 2 3 5 9 8 9 8 9 8 7 7 7 8 7 6 6 6 6 6 6 6 5 5 5 5 6 6 6 6 6 6 7 8 8 9 9 8 8 9 8 9 9 9 9 8 8 8 8 8 8 9 9 9 8 8 9 9 9 10 12 12 12 11 11 11 12 11 11 11 11 10 8 9 8 11 9 9 10 10 10
1 3 5 4 5 5 2 4 3 1 1 2 1 2 2 1 1 2 4 7 8 8 10 10 9 8 8 7 7 6 6 6 6 6 6 6 6 5 5 4 4 4 5 5 6 6 7 7 7 8 8 8 8 8 8 8 8 8 9 10 10 9 8 7 6 7 7 8 8 9 9 9 8 9 9 10 11 11 11 11 11 11 11 10 11 11 11 10 8 8 8 8 10 8 10 11 9
3 4 3 4 2 4 2 2 1 3 4 5 4 1 1 1 2 3 5 8 7 8 9 9 9 8 7 7 7 6 6 6 5 5 5 5 5 5 4 4 4 4 4 5 6 6 7 7 7 8 7 7 7 8 8 7 8 7 9 9 8 9 8 8 8 8 8 7 7 6 7 8 8 8 8 8 10 11 10 10 10 11 10 10 10 10 11 10 9 6 6 7 7 9 9 9 9
5 1 6 1 2 4 4 3 2 1 3 5 3 7 2 3 5 10 8 8 9 9 10 9 9 8 8 7 7 6 6 6 6 6 6 5 5 5 4 4 4 4 5 5 6 6 5 5 5 6 6 6 7 6 7 7 7 7 7 7 7 7 7 7 7 7 7 7 7 6 7 7 8 8 8 7 10 10 10 11 10 11 11 10 10 10 10 11 10 4 5 4 6 7 7 8 7
3 2 2 3 2 1 2 4 2 0 2 4 3 1 3 8 5 9 15 14 14 12 10 10 10 8 8 8 8 8 7 6 5 5 5 4 5 4 4 5 5 5 5 5 5 5 5 4 5 4 5 5 7 6 6 6 6 5 6 7 8 7 8 7 7 8 6 8 9 8 8 8 7 9 8 8 9 9 10 10 10 11 10 10 10 10 11 10 11 7 5 3 6 5 6 7 7
1 1 1 0 2 2 4 5 3 5 4 2 7 2 6 9 5 18 20 18 14 13 12 11 10 9 9 8 8 7 6 5 5 5 4 4 4 4 4 4 5 5 5 5 5 5 5 4 5 6 6 5 7 8 7 7 7 7 7 7 7 7 8 8 9 9 8 9 9 9 10 9 10 9 8 9 8 10 10 10 9 10 10 9 10 10 10 11 10 9 8 5 5 5 5 6 6
1 1 2 0 1 2 4 1 4 3 3 3 2 5 4 2 3 8 13 15 16 15 12 9 8 8 8 7 7 6 6 5 5 4 4 4 3 4 4 4 4 4 4 4 4 4 5 5 6 8 9 8 7 7 7 7 7 7 8 8 8 8 8 8 7 9 7 9 9 9 9 9 9 9 9 9 9 9 9 8 9 9 9 10 10 10 10 10 10 10 10 6 4 5 6 5 5
7 8 7 8 5 2 2 8 2 1 3 4 3 10 3 1 4 3 9 11 12 11 10 10 9 9 8 6 7 7 6 6 5 5 4 3 3 3 4 3 3 3 3 5 5 5 7 8 7 7 7 7 7 6 6 6 6 5 7 6 7 6 6 8 7 9 8 9 9 9 10 9 10 10 9 10 10 9 9 9 8 9 9 9 9 10 9 9 10 10 11 9 5 4 5 5 5
Wind_Direction
333 331 319 313 311 298 45 4 124 299 71 190 254 57 195 194 212 13 343 336 46 318 305 311 11 14 120 152 127 115 37 103 263 136 175 197 236 67 126 131 129 127 126 124 109 99 101 105 108 117 126 120 109 105 102 98 95 87 84 84 83 80 76 70 62 61 56 53 49 47 46 46 45 44 40 34 31 29 24 19 15 11 6 3 0 4 355 354 355 353 352 353 353 355 357 356 357
333 327 316 312 313 75 343 128 97 32 35 64 243 69 271 308 44 316 326 319 276 304 323 359 75 88 102 122 133 90 32 16 348 102 94 216 327 103 141 144 148 135 133 131 118 114 108 109 113 116 122 118 113 110 100 99 89 84 82 83 77 77 73 67 62 58 57 51 48 44 42 39 38 37 30 27 21 19 14 11 6 4 360 357 357 357 2 356 356 359 359 355 356 357 359 355 358
328 338 326 355 24 72 136 46 108 155 123 187 272 187 312 29 333 313 295 305 314 318 289 288 103 74 59 54 35 44 123 334 42 33 92 323 85 27 109 144 134 130 137 130 114 108 108 116 116 116 115 112 108 107 108 96 85 80 74 65 68 67 63 61 55 48 45 42 34 31 29 24 25 22 19 14 14 8 6 2 0 357 354 352 351 351 352 355 357 360 0 357 356 359 359 355 356
332 294 252 32 289 22 68 31 91 130 169 207 279 290 209 164 321 304 293 313 317 335 337 344 54 310 105 72 112 73 60 18 306 85 51 7 17 264 66 128 124 115 109 115 111 99 92 104 105 108 107 102 98 98 97 84 87 86 75 70 67 64 57 46 45 35 30 23 13 13 11 15 7 5 2 2 359 359 359 357 353 351 350 350 350 352 352 352 357 359 357 356 355 354 352 352 352
313 290 238 82 102 1 104 157 143 99 189 197 175 276 221 52 314 337 319 347 339 353 345 348 76 357 73 93 31 84 159 136 28 22 101 295 315 35 96 107 100 96 92 91 97 97 99 100 89 86 90 93 91 90 87 87 85 79 77 70 63 57 47 43 39 31 22 19 8 0 5 2 356 352 351 350 349 348 348 347 349 344 343 345 346 349 352 353 354 358 354 352 351 349 346 347 348
274 282 35 71 108 186 48 55 74 155 230 155 127 243 124 142 45 325 331 347 2 353 342 38 40 193 33 12 34 79 346 76 223 15 101 342 37 90 88 90 88 87 86 85 87 88 94 94 92 91 88 84 82 78 75 68 62 60 58 58 56 51 46 43 37 31 22 14 15 15 3 356 356 353 350 349 348 345 342 342 339 341 337 339 343 345 347 349 351 353 351 348 343 342 342 343 342
282 33 15 16 6 66 145 118 176 175 265 153 166 148 176 205 90 44 356 8 5 334 24 27 344 90 86 58 29 29 310 245 62 337 85 90 63 93 100 94 100 95 85 81 79 78 85 85 85 86 89 86 78 74 70 69 65 63 63 61 63 60 53 48 37 35 33 29 27 23 16 9 8 8 1 354 350 343 337 334 333 330 331 331 334 338 336 336 336 338 337 334 335 335 337 338 337
267 128 240 101 136 65 81 139 260 154 246 274 183 151 222 112 135 100 67 96 323 6 345 338 348 92 37 43 119 297 5 23 48 80 73 63 71 85 98 109 91 72 73 66 58 58 61 70 71 71 74 76 73 71 71 69 68 65 60 62 63 63 70 64 56 46 43 39 32 30 22 16 8 2 359 345 334 327 327 325 322 322 323 328 332 329 327 327 321 322 325 324 328 331 331 332 332
294 83 40 68 60 54 64 51 262 182 175 156 223 224 142 144 133 95 62 9 82 329 355 351 318 77 322 56 65 303 351 352 11 30 34 55 74 79 86 87 94 86 76 67 59 50 50 50 60 61 66 72 73 73 71 69 72 74 67 57 60 62 62 70 68 87 100 92 85 71 43 22 9 359 349 342 326 323 319 318 317 319 325 326 325 322 321 320 319 315 313 316 317 323 326 328 331
348 99 230 139 132 74 65 327 31 217 201 254 201 151 167 172 143 118 128 75 197 335 311 349 327 99 149 71 23 1 324 330 358 27 5 50 79 81 82 91 101 101 83 75 68 65 58 52 46 42 39 39 45 54 56 54 48 42 32 25 19 19 16 12 12 11 345 127 132 109 58 35 15 350 334 324 325 319 322 322 324 325 323 322 320 314 313 313 313 311 308 309 314 315 319 320 324
314 358 142 70 52 70 98 219 304 357 299 296 300 245 193 154 143 148 151 133 206 119 289 6 15 34 59 44 49 283 320 9 39 13 357 60 66 77 88 89 95 96 83 57 42 36 33 33 35 31 28 22 18 19 22 27 30 32 26 17 14 9 4 1 360 357 352 341 344 13 21 8 350 342 332 324 319 318 321 325 323 322 322 322 318 316 313 311 310 307 308 308 312 316 316 314 317
359 350 12 102 84 139 243 166 73 296 277 25 265 178 214 185 154 140 145 134 184 157 200 163 192 170 71 53 351 324 309 207 178 226 36 52 63 68 69 58 52 53 55 57 51 44 40 37 34 28 24 20 22 20 18 14 8 2 359 360 356 353 354 353 354 351 350 349 351 356 357 355 349 334 327 325 323 323 325 321 318 320 321 317 317 317 315 314 312 311 311 311 313 314 313 312 308
102 83 75 75 148 89 187 66 170 218 339 268 205 231 178 179 184 167 177 160 169 152 236 210 164 168 104 125 221 276 274 234 195 225 103 96 82 56 58 56 54 52 48 45 45 38 35 34 32 28 25 24 24 28 27 20 12 2 356 352 349 348 345 347 348 345 348 349 351 354 350 341 334 324 319 318 317 317 318 315 317 317 317 316 322 321 318 319 321 320 318 317 316 316 313 309 305
107 173 112 114 9 93 110 192 231 141 229 261 242 256 147 138 149 163 151 141 167 163 178 191 160 136 91 101 218 241 245 235 214 199 185 104 74 73 68 62 53 48 44 44 41 36 32 28 29 27 26 24 23 22 23 19 12 6 4 2 357 348 343 343 341 347 343 343 344 343 343 336 333 329 326 323 322 321 320 319 316 310 311 314 317 320 315 314 317 319 318 317 316 314 310 306 303
353 106 83 108 55 100 150 150 202 184 156 109 281 7 84 54 122 140 137 125 162 151 152 109 154 113 206 148 210 215 218 215 203 201 109 73 74 67 64 59 57 49 42 41 39 35 29 26 25 25 25 24 23 24 22 17 18 18 18 16 8 9 7 353 352 351 350 346 341 335 334 337 326 322 322 324 330 330 329 330 323 317 317 316 311 311 311 309 308 310 310 310 308 306 304 304 306
167 77 87 91 22 107 285 97 8 38 190 187 246 236 83 6 352 99 149 148 145 109 144 125 320 215 160 158 178 206 212 189 196 143 93 82 70 63 57 54 53 50 45 38 36 33 29 29 24 24 23 23 24 25 25 22 20 21 24 24 26 28 26 28 22 12 7 6 355 344 340 331 323 322 328 333 334 334 338 339 333 329 322 314 307 309 310 307 305 303 300 298 297 297 298 298 301
54 82 46 42 89 99 270 192 121 205 254 254 217 175 116 102 318 34 77 39 92 355 33 75 186 111 154 176 169 191 191 144 128 86 69 63 63 53 48 42 43 44 38 37 34 28 26 27 24 23 20 21 23 25 26 24 21 23 23 24 25 27 29 30 29 24 19 17 14 11 8 355 344 337 344 346 344 349 350 351 345 335 328 320 316 324 324 318 310 307 301 293 291 291 290 293 293
56 71 114 66 171 123 206 200 185 196 137 352 68 78 102 95 357 311 40 18 44 25 45 353 27 36 101 120 139 74 43 63 71 74 69 63 53 49 46 38 40 36 32 30 30 26 24 23 21 22 21 20 24 29 29 25 23 25 25 23 23 25 27 28 29 25 21 15 13 13 10 10 9 13 13 8 4 1 2 7 8 4 358 350 343 338 332 328 326 321 314 306 301 296 297 297 292
120 148 85 156 168 239 152 216 277 113 122 145 88 57 102 90 78 320 71 24 29 53 26 56 71 26 48 53 43 57 67 63 67 69 68 61 55 53 48 43 43 38 34 29 26 23 22 20 21 22 22 21 27 31 29 27 28 27 24 23 22 26 26 28 30 28 23 17 15 11 10 8 8 14 14 11 10 10 11 12 10 11 11 11 2 352 347 348 340 333 327 318 316 312 308 292 291
245 109 95 227 187 353 178 108 330 124 236 91 85 44 71 316 116 28 99 86 61 71 79 52 87 110 89 54 56 60 65 64 62 68 66 63 58 56 50 46 44 40 38 33 29 25 20 19 18 21 21 23 30 29 28 29 29 27 26 23 25 26 24 26 28 30 25 19 18 13 9 5 10 11 9 10 10 10 6 8 8 8 9 11 5 5 5 4 357 349 348 343 335 328 317 309 305
278 74 153 197 132 129 208 146 239 291 194 75 30 42 57 340 2 79 143 69 54 56 145 124 140 147 79 71 64 64 64 62 58 59 63 60 58 55 54 50 45 41 35 34 33 27 21 19 16 18 18 26 29 30 30 30 29 32 27 24 25 25 24 25 25 26 24 15 15 13 6 11 14 13 10 8 9 7 7 6 6 6 5 7 2 5 3 360 1 355 350 349 348 339 330 318 316
83 184 183 134 212 203 171 187 175 192 132 103 76 61 107 329 39 34 84 123 168 175 244 139 142 97 92 81 70 66 64 64 60 59 59 59 56 51 45 46 46 44 35 39 31 26 22 19 18 16 18 28 35 33 32 31 31 29 26 25 25 28 27 28 26 25 22 18 13 10 4 13 13 10 7 7 4 0 5 6 6 3 3 5 2 359 360 0 356 351 346 344 340 340 338 328 320
156 316 158 193 195 144 166 188 199 141 129 118 138 170 85 59 85 136 104 134 229 227 142 53 66 76 83 76 71 65 63 63 60 59 57 58 57 53 50 44 41 39 37 40 31 29 23 22 19 17 20 19 34 39 40 38 35 30 30 30 29 28 27 28 27 24 20 19 15 14 11 8 9 7 2 1 2 358 358 1 4 2 2 2 2 360 357 354 350 345 340 337 333 337 337 335 328
108 203 276 328 169 158 152 181 166 130 126 162 153 75 69 67 30 213 79 230 225 336 74 85 79 75 71 71 64 69 68 64 62 61 57 57 56 55 51 48 45 46 45 38 34 29 26 22 19 22 21 18 23 34 39 40 36 32 32 35 35 30 28 27 24 22 19 20 17 16 13 12 10 6 3 0 358 356 353 352 356 1 5 6 360 1 356 350 346 343 338 333 334 332 332 331 334
167 261 286 317 75 76 282 349 346 64 104 131 102 99 205 169 198 62 225 246 40 70 81 78 78 69 66 67 65 67 69 66 64 62 59 54 54 57 52 50 46 45 44 36 31 31 26 21 19 21 19 18 17 27 46 44 35 33 29 30 32 26 30 27 23 20 19 17 16 16 15 12 10 5 1 354 349 357 353 355 356 1 6 5 360 1 358 347 342 340 338 332 330 328 326 325 329
183 209 136 16 66 288 228 107 101 158 114 108 73 134 249 229 173 271 241 231 79 83 69 72 74 67 64 67 65 65 67 68 67 60 60 56 49 53 48 47 48 49 42 37 32 29 24 22 22 19 18 18 16 21 40 41 35 33 30 28 28 27 28 26 23 25 22 19 15 11 13 12 10 4 359 354 356 357 357 357 358 359 359 359 360 357 352 346 339 336 335 334 330 328 323 318 325
240 114 139 137 280 352 52 70 200 213 156 173 139 155 233 318 133 298 333 86 95 79 75 66 72 73 67 68 67 63 66 63 63 70 64 56 50 49 45 45 48 51 44 40 33 28 22 24 23 18 17 16 19 25 29 46 38 36 30 26 27 30 26 25 25 24 24 24 18 12 14 12 5 3 358 353 352 356 357 359 0 357 358 356 353 352 347 344 337 336 334 333 332 327 322 318 322
65 185 28 359 346 322 235 209 257 187 353 184 121 187 358 344 78 206 4 85 93 89 78 73 73 74 74 69 68 64 64 60 64 61 57 52 48 45 46 41 44 47 44 38 31 24 26 25 23 20 17 15 18 26 26 42 42 36 33 31 30 30 28 29 26 23 25 20 17 14 14 13 10 4 1 357 354 355 356 357 357 360 354 348 349 348 344 338 333 333 337 342 338 334 328 325 322
213 61 352 312 358 348 309 252 246 152 243 142 135 61 353 353 193 219 92 93 88 88 82 80 77 79 78 76 73 66 63 62 58 57 52 54 53 48 50 38 36 43 44 41 30 26 26 19 20 17 15 16 18 19 26 37 45 40 36 35 33 30 32 30 29 27 25 20 17 13 14 15 12 7 1 360 358 357 355 355 357 356 351 345 343 344 343 339 341 345 347 342 343 341 341 338 331
92 37 105 354 3 331 288 311 160 124 231 112 90 276 275 270 248 251 108 102 88 77 78 78 83 79 78 76 70 69 62 60 56 56 54 51 50 48 49 39 37 37 37 35 31 31 24 23 19 15 13 14 14 16 16 23 47 48 43 38 34 32 31 33 32 29 27 23 19 18 14 18 15 8 4 1 5 359 358 359 356 353 348 343 342 345 343 344 344 346 345 343 344 342 341 337 337
113 276 53 171 17 279 305 185 162 131 286 10 82 160 287 304 249 197 111 105 95 90 85 85 82 80 76 74 72 68 62 56 60 57 53 50 49 48 50 43 39 37 35 33 33 28 26 24 21 19 14 14 13 14 14 9 17 54 48 44 37 32 32 33 31 27 24 22 19 18 15 18 16 10 5 3 2 4 0 359 356 352 344 343 344 346 345 346 348 347 347 346 341 340 338 336 337
44 46 291 325 167 277 302 16 150 143 334 52 86 57 223 269 230 142 83 99 99 96 95 90 88 86 81 78 75 70 65 59 55 54 52 51 47 48 45 45 40 39 37 32 33 29 30 26 23 24 17 14 13 11 11 7 4 33 57 49 46 39 35 34 32 29 24 21 22 18 13 15 15 11 6 3 3 4 2 358 354 350 347 345 344 344 348 351 350 348 348 348 343 339 338 336 335
348 125 251 246 136 248 356 17 333 118 109 7 120 204 336 283 243 69 102 96 100 104 98 96 94 88 85 77 72 70 65 58 54 50 49 52 50 48 47 44 41 40 37 32 27 28 30 25 24 25 20 16 12 12 14 9 5 13 36 45 38 40 38 33 31 28 26 25 23 21 12 13 13 9 6 3 1 2 2 356 350 350 348 345 344 344 349 352 353 347 342 347 348 338 338 334 337
298 357 197 200 178 229 229 311 36 20 107 165 23 116 219 226 246 75 104 109 102 100 105 96 92 93 84 79 73 71 65 60 55 47 48 51 56 53 48 47 41 38 39 34 30 28 27 24 23 22 20 18 16 15 18 13 7 14 16 42 39 35 37 33 28 27 27 22 20 22 13 12 13 10 6 4 4 1 357 356 351 353 349 348 347 349 350 353 353 351 342 344 345 342 338 335 334
208 180 138 269 304 161 199 141 226 81 1 143 87 84 266 282 32 91 109 107 99 102 106 107 100 94 89 81 78 71 68 62 55 51 48 50 52 51 47 43 42 38 34 34 32 28 29 25 23 19 17 16 15 16 19 18 14 20 22 21 35 32 32 32 26 28 27 21 21 18 17 14 11 10 8 7 7 2 359 360 355 352 351 352 349 350 355 356 354 350 345 338 339 340 331 330 331
190 169 171 167 156 228 176 236 274 141 103 114 144 184 230 322 52 86 72 76 100 104 103 101 98 91 86 84 80 74 72 67 58 54 50 49 52 49 44 41 43 39 34 31 32 29 27 24 21 22 20 14 11 19 22 23 20 19 19 15 30 30 24 26 26 27 24 25 19 17 18 14 11 9 9 7 9 5 1 359 355 353 354 354 353 356 356 356 351 347 346 341 338 338 340 340 341
89 81 112 182 166 267 293 298 263 106 92 188 187 113 28 37 77 68 80 92 87 99 99 96 96 93 89 87 84 79 72 74 62 57 51 48 47 47 47 42 39 41 36 28 29 28 25 21 16 20 11 8 12 17 21 21 20 15 22 24 21 22 18 20 24 21 24 24 19 18 19 12 11 11 10 6 8 5 2 358 356 356 355 353 355 354 351 349 349 346 340 341 342 342 340 344 343
137 121 121 233 169 228 228 214 306 330 147 266 141 76 43 39 40 58 66 71 79 87 99 98 93 91 88 88 87 81 83 76 67 55 51 49 43 43 43 42 32 33 28 27 27 24 22 19 23 17 11 11 15 18 17 22 22 20 12 13 10 16 18 18 15 19 18 20 21 19 19 13 12 13 9 7 8 4 0 0 357 354 353 354 353 346 348 348 349 350 348 342 347 342 337 343 345
76 148 182 123 268 263 298 305 341 306 89 226 71 80 51 40 42 45 44 57 64 61 69 90 95 90 88 80 80 83 78 70 63 63 52 47 44 40 41 40 38 36 32 30 24 23 23 21 19 16 12 14 14 12 17 18 14 10 15 10 12 13 29 22 20 16 13 21 18 19 13 14 9 9 9 6 6 3 2 359 357 350 352 354 351 351 351 353 352 349 350 346 338 344 335 342 346
116 93 108 208 236 142 267 289 312 357 110 203 138 95 90 70 64 62 52 58 74 65 64 64 62 77 71 71 70 77 75 67 59 53 47 44 44 39 39 38 34 31 30 29 23 21 23 21 16 14 13 16 15 14 15 13 15 10 12 16 11 24 20 14 15 17 15 18 16 13 10 9 6 6 6 4 4 2 360 358 353 353 353 354 353 350 350 351 351 350 348 347 343 336 345 336 350
316 150 137 189 212 232 147 218 335 342 358 93 98 94 107 80 80 82 63 63 69 70 74 70 68 67 73 71 69 61 65 64 61 52 48 41 39 37 33 34 31 33 29 29 25 23 21 20 16 14 16 15 14 10 10 14 14 15 15 19 26 21 25 19 13 17 16 14 9 10 7 5 5 6 6 5 4 359 356 357 355 353 353 354 354 353 352 349 346 346 347 348 347 339 334 329 332
307 216 176 192 164 118 182 59 116 29 328 267 149 332 216 113 103 98 104 63 62 55 70 68 71 68 66 67 66 66 64 59 60 54 50 46 43 39 35 31 33 32 32 26 27 25 23 22 19 16 17 13 12 8 5 17 18 15 9 15 14 14 14 15 13 7 360 9 8 359 4 7 6 7 8 5 5 358 357 357 356 354 354 356 356 355 350 348 350 349 352 348 340 344 332 331 327
96 271 167 180 144 134 126 115 85 254 202 270 106 184 253 150 146 133 97 82 72 58 63 69 61 65 63 62 62 60 59 60 58 58 51 47 41 39 37 34 31 33 31 24 24 25 23 25 23 17 13 14 12 10 5 15 17 19 20 23 28 20 18 14 6 5 3 2 3 5 4 5 11 8 6 7 5 358 357 358 356 354 354 352 357 354 355 353 348 347 347 349 344 341 343 339 335
221 237 113 102 98 118 167 131 163 208 267 296 95 119 153 209 192 126 134 100 90 77 77 72 73 70 67 65 61 57 58 56 61 56 53 50 46 40 37 34 33 33 29 26 25 25 26 26 18 14 12 17 14 13 11 17 23 20 21 22 24 24 19 6 1 358 2 359 1 360 359 1 5 5 5 1 2 360 356 357 356 355 356 353 358 359 353 349 346 347 348 346 344 346 346 344 332
216 189 132 121 137 160 136 114 154 217 111 259 301 323 277 247 113 126 144 116 119 123 109 98 86 79 74 70 65 65 61 61 62 62 57 52 49 45 40 37 34 34 31 30 27 21 25 23 21 11 14 15 16 18 21 18 25 25 24 24 20 17 16 9 3 3 4 357 4 358 0 356 359 0 5 0 1 359 356 354 354 356 357 356 356 357 355 350 349 351 349 351 349 350 349 342 338
251 137 81 63 71 76 119 107 104 346 111 249 231 185 206 269 167 176 195 149 186 161 132 106 92 89 84 79 75 72 70 69 67 68 68 61 56 53 47 43 38 33 33 32 25 20 22 24 18 19 17 19 18 23 24 24 27 26 29 28 27 16 14 9 13 9 10 357 4 357 357 356 355 355 357 358 358 358 353 354 353 356 356 356 352 352 356 353 350 352 350 350 346 351 348 350 348
121 97 80 25 36 43 32 68 93 61 269 246 227 214 189 264 194 193 178 217 156 140 121 115 107 95 84 80 78 75 75 71 70 71 72 73 64 52 47 44 42 36 34 28 19 23 22 23 24 25 23 19 21 23 25 25 25 26 28 23 23 23 13 14 13 9 10 1 7 356 357 353 352 354 351 353 355 353 351 354 354 353 350 353 347 348 356 354 348 349 348 348 350 352 350 348 348
110 86 113 55 16 20 31 346 35 175 268 259 234 199 193 226 209 220 301 86 144 151 150 145 132 116 103 95 86 79 76 73 70 65 64 66 61 53 46 48 41 39 33 26 20 20 27 25 25 27 24 21 19 21 26 27 25 25 24 24 24 22 22 16 17 8 7 1 3 357 354 353 351 352 349 352 351 352 348 349 351 351 351 350 345 344 343 354 347 345 351 352 351 351 351 351 349
83 86 57 128 247 46 304 23 271 210 211 242 81 153 67 240 297 26 47 113 126 133 136 135 128 121 112 102 94 86 78 79 73 67 65 59 60 51 44 43 44 38 32 24 19 24 27 28 26 30 27 19 19 20 25 26 27 25 24 21 23 22 25 22 16 14 5 2 358 357 356 356 352 349 350 350 345 348 345 345 349 350 348 347 342 341 335 348 347 347 354 353 353 353 353 350 349
110 137 143 104 159 181 232 256 231 307 281 258 337 196 231 46 212 22 95 80 100 114 121 126 129 127 123 116 107 94 85 79 75 76 70 64 57 61 52 47 48 39 33 26 25 26 30 29 26 28 26 23 17 21 23 26 28 26 23 25 21 22 22 23 16 15 2 5 357 359 354 355 349 345 346 344 342 339 341 341 341 343 341 340 340 338 338 341 353 349 353 356 350 349 351 349 347
204 134 143 183 141 158 216 192 200 214 213 283 313 123 243 154 270 45 86 101 104 105 111 109 110 116 116 114 110 104 98 85 84 81 78 74 71 67 61 54 46 46 33 33 28 31 27 27 29 24 21 20 20 19 22 22 24 24 26 23 27 22 19 18 18 11 2 4 357 359 351 352 349 342 343 337 339 339 335 340 339 340 342 341 339 341 336 335 350 352 353 358 349 348 350 346 346
226 159 83 83 237 136 171 208 153 230 295 330 246 204 352 34 49 102 105 105 102 114 116 122 120 125 125 121 116 112 102 101 94 88 83 85 83 74 67 64 56 47 45 34 37 29 27 28 26 27 23 17 17 20 22 23 19 24 25 25 22 21 17 14 12 9 6 3 356 357 350 346 347 341 337 339 339 340 334 336 338 338 340 338 338 337 335 331 339 359 349 359 351 346 351 342 349
228 116 206 206 166 98 85 10 23 102 48 256 129 31 162 119 227 141 147 126 133 135 137 135 140 138 133 123 119 113 112 110 103 97 95 88 80 80 81 66 63 58 49 48 40 37 29 27 25 20 21 13 22 15 20 22 17 24 22 23 20 18 15 11 7 1 1 356 347 352 347 337 339 340 336 338 339 336 336 336 336 336 337 337 337 336 332 329 327 357 344 357 346 349 351 340 341
86 144 237 142 107 110 133 223 340 52 193 260 134 203 216 138 293 152 176 168 171 162 155 149 143 145 136 132 128 126 123 118 114 110 105 102 97 87 73 74 68 60 57 43 40 43 38 30 31 28 17 17 7 19 14 16 18 12 17 14 14 19 10 5 2 353 355 351 345 351 344 341 346 339 336 337 340 336 338 340 337 336 335 334 335 336 333 329 325 341 339 1 337 349 344 342 341
152 190 213 124 257 274 321 88 282 174 268 266 302 236 201 194 201 158 199 189 182 172 159 156 154 145 135 128 128 129 128 124 119 109 103 98 95 84 77 62 59 54 52 49 33 33 29 27 23 28 26 25 12 12 12 9 18 9 6 7 4 7 5 5 357 352 354 353 351 349 347 341 337 341 336 343 341 340 340 342 339 336 334 333 334 335 335 331 327 326 334 354 334 350 346 341 344
106 66 51 197 110 180 131 201 179 113 245 57 286 43 241 191 213 189 197 186 171 160 166 168 157 147 145 141 142 138 131 120 112 106 96 92 80 73 64 58 43 42 37 32 36 20 14 14 11 14 12 26 19 11 10 2 9 6 0 1 4 1 2 359 358 351 356 353 349 347 343 342 344 339 332 343 336 338 337 337 336 335 333 333 335 334 334 332 331 327 327 343 331 341 341 339 343
253 80 285 350 9 211 106 53 134 178 182 187 218 310 273 266 4 201 197 176 172 166 156 146 140 139 139 140 137 132 125 122 117 106 98 90 82 64 56 54 50 38 39 31 33 19 11 11 13 9 10 3 21 2 8 359 359 359 359 1 358 355 359 354 358 349 356 348 346 345 342 338 337 336 336 338 335 334 332 330 333 334 332 333 334 332 334 332 330 327 325 322 331 332 332 331 337
170 169 208 177 123 173 186 256 24 99 107 236 133 256 257 307 2 268 173 162 155 158 133 130 136 134 133 134 133 132 130 121 119 112 108 95 83 69 58 48 40 47 22 30 19 19 10 10 4 2 7 352 6 357 4 357 356 353 355 352 353 349 354 347 356 346 356 344 346 344 336 340 338 332 335 332 331 331 328 327 329 330 329 331 331 331 330 333 326 325 327 320 319 325 323 323 334